Weather History for KFFA - June, 2013

Change the Weather History Date:

Saturday, June 15, 2013

  Actual Average (KECG) Record (KECG)
Temperature  
Mean Temperature 70 °F 76 °F  
Max Temperature 79 °F 85 °F 96 °F (1945)
Min Temperature 61 °F 66 °F 49 °F (1959)
Degree Days  
Heating Degree Days 0 0  
Month to date heating degree days 0  
Since 1 June heating degree days 0  
Since 1 July heating degree days 3229  
Cooling Degree Days 5 11  
Month to date cooling degree days 133  
Year to date cooling degree days 297  
Since 1 June cooling degree days 133  
Growing Degree Days 20 (Base 50)    
Moisture  
Dew Point 58 °F    
Average Humidity 64    
Maximum Humidity 83    
Minimum Humidity 45    
Precipitation  
Precipitation 0.00 in 0.17 in 2.38 in (1965)
Month to date precipitation 2.30  
Year to date precipitation 19.47  
Snow  
Snow 0.00 in - 0.00 in (2002)
Month to date snowfall  
Since 1 July snowfall  
Snow Depth -    
Sea Level Pressure  
Sea Level Pressure 30.04 in    
Wind  
Wind Speed 5 mph (WSW)    
Max Wind Speed 12 mph    
Max Gust Speed 17 mph    
Visibility 10 miles    
Events      
T = Trace of Precipitation, MM = Missing Value Source: NWS Daily Summary

Daily Weather History Graph

Daily Weather History Graph

Search for Another Location

Airport or City:

Trip Planner

Search our weather history database for the weather conditions in past years. The results will help you decide how hot, cold, wet, or windy it might be!

Date:

Astronomy

Jun. 15, 2013 Rise Set
Actual Time 5:45 AM EDT 8:21 PM EDT
Civil Twilight 5:15 AM EDT 8:51 PM EDT
Nautical Twilight 4:37 AM EDT 9:29 PM EDT
Astronomical Twilight 3:55 AM EDT 10:10 PM EDT
Moon 12:06 PM EDT (6/15) 12:05 AM EDT (6/15)
Length of Visible Light 15h 36m
Length of Day
14h 35m
Waxing Crescent, 39% of the Moon is Illuminated
Jun 15
Waxing Crescent
Jun 16
First Quarter
Jun 23
Full
Jun 30
Last Quarter
Jul 8
New

Hourly Weather History & Observations

Time (EDT) Temp. Dew Point Humidity Pressure Visibility Wind Dir Wind Speed Gust Speed Precip Events Conditions
12:15 AM 62.1 °F 54.3 °F 76% 29.99 in 10.0 mi Calm Calm - N/A   Clear
12:35 AM 61.5 °F 54.7 °F 78% 29.99 in 10.0 mi SW 3.5 mph - N/A   Clear
12:55 AM 61.7 °F 55.9 °F 81% 29.99 in 10.0 mi Calm Calm - N/A   Clear
1:15 AM 62.6 °F 55.4 °F 77% 29.99 in 10.0 mi Calm Calm - N/A   Clear
1:35 AM 62.6 °F 56.7 °F 81% 29.99 in 10.0 mi SW 4.6 mph - N/A   Clear
1:55 AM 63.0 °F 57.0 °F 81% 29.99 in 10.0 mi WSW 5.8 mph - N/A   Clear
2:15 AM 63.1 °F 55.9 °F 77% 29.99 in 10.0 mi SW 5.8 mph - N/A   Clear
2:35 AM 63.5 °F 55.6 °F 75% 30.00 in 10.0 mi SW 8.1 mph - N/A   Clear
2:55 AM 63.9 °F 55.9 °F 75% 29.99 in 10.0 mi WSW 5.8 mph - N/A   Clear
3:15 AM 63.9 °F 56.7 °F 77% 29.99 in 10.0 mi WSW 6.9 mph - N/A   Clear
3:35 AM 64.2 °F 57.4 °F 78% 29.99 in 10.0 mi WSW 4.6 mph - N/A   Clear
3:55 AM 64.0 °F 57.9 °F 80% 29.99 in 10.0 mi WSW 4.6 mph - N/A   Clear
4:15 AM 64.0 °F 58.8 °F 83% 29.99 in 10.0 mi WSW 4.6 mph - N/A   Clear
4:35 AM 64.4 °F 58.8 °F 82% 29.99 in 10.0 mi SW 4.6 mph - N/A   Clear
4:55 AM 64.8 °F 57.9 °F 78% 29.99 in 10.0 mi West 5.8 mph - N/A   Clear
5:15 AM 65.7 °F 57.7 °F 76% 29.99 in 10.0 mi WSW 4.6 mph - N/A   Clear
5:35 AM 66.0 °F 58.1 °F 76% 29.99 in 10.0 mi West 6.9 mph - N/A   Clear
5:55 AM 66.2 °F 58.5 °F 76% 30.00 in 10.0 mi West 6.9 mph - N/A   Clear
6:15 AM 66.7 °F 59.0 °F 76% 30.02 in 10.0 mi West 6.9 mph - N/A   Clear
6:35 AM 67.3 °F 59.9 °F 77% 30.02 in 10.0 mi West 4.6 mph - N/A   Clear
6:55 AM 68.9 °F 58.8 °F 70% 30.03 in 10.0 mi WNW 9.2 mph - N/A   Clear
7:15 AM 69.8 °F 57.6 °F 65% 30.03 in 10.0 mi WNW 10.4 mph 16.1 mph N/A   Clear
7:35 AM 69.8 °F 58.1 °F 66% 30.04 in 10.0 mi WNW 10.4 mph 17.3 mph N/A   Clear
7:55 AM 69.8 °F 59.0 °F 68% 30.05 in 10.0 mi West 11.5 mph 17.3 mph N/A   Clear
8:15 AM 69.8 °F 58.6 °F 68% 30.07 in 10.0 mi WNW 9.2 mph 17.3 mph N/A   Clear
8:35 AM 70.0 °F 58.1 °F 66% 30.07 in 10.0 mi WNW 6.9 mph - N/A   Clear
8:55 AM 70.2 °F 57.6 °F 64% 30.07 in 10.0 mi WNW 11.5 mph 16.1 mph N/A   Clear
9:15 AM 70.7 °F 58.1 °F 64% 30.07 in 10.0 mi WNW 6.9 mph - N/A   Clear
9:35 AM 72.1 °F 58.6 °F 62% 30.08 in 10.0 mi WNW 8.1 mph - N/A   Clear
9:55 AM 73.0 °F 57.4 °F 58% 30.08 in 10.0 mi WNW 8.1 mph 16.1 mph N/A   Clear
10:15 AM 73.6 °F 57.4 °F 57% 30.08 in 10.0 mi WNW 8.1 mph - N/A   Clear
10:35 AM 74.3 °F 57.2 °F 55% 30.08 in 10.0 mi WNW 6.9 mph - N/A   Clear
10:55 AM 75.0 °F 58.3 °F 56% 30.09 in 10.0 mi West 5.8 mph - N/A   Clear
11:15 AM 75.2 °F 59.4 °F 58% 30.09 in 10.0 mi West 9.2 mph - N/A   Clear
11:35 AM 75.2 °F 58.5 °F 56% 30.09 in 10.0 mi West 8.1 mph - N/A   Clear
11:55 AM 75.9 °F 58.5 °F 55% 30.09 in 10.0 mi West 5.8 mph - N/A   Clear
12:15 PM 76.6 °F 58.6 °F 54% 30.09 in 10.0 mi WNW 5.8 mph - N/A   Clear
12:35 PM 77.4 °F 58.1 °F 51% 30.08 in 10.0 mi WNW 5.8 mph - N/A   Clear
12:55 PM 77.4 °F 57.7 °F 51% 30.07 in 10.0 mi West 6.9 mph - N/A   Clear
1:15 PM 77.4 °F 56.3 °F 48% 30.07 in 10.0 mi WNW 8.1 mph - N/A   Clear
1:35 PM 78.1 °F 55.9 °F 46% 30.08 in 10.0 mi West 6.9 mph - N/A   Clear
1:55 PM 78.4 °F 55.8 °F 45% 30.07 in 10.0 mi WSW 3.5 mph - N/A   Clear
2:15 PM 79.2 °F 56.1 °F 45% 30.07 in 10.0 mi WNW 3.5 mph - N/A   Clear
2:35 PM 78.4 °F 59.4 °F 52% 30.06 in 10.0 mi Calm Calm - N/A   Clear
2:55 PM 77.2 °F 60.1 °F 55% 30.06 in 10.0 mi East 4.6 mph - N/A   Clear
3:15 PM 77.2 °F 59.9 °F 55% 30.05 in 10.0 mi ENE 5.8 mph - N/A   Clear
3:35 PM 78.1 °F 60.4 °F 54% 30.05 in 10.0 mi East 4.6 mph - N/A   Clear
3:55 PM 78.3 °F 60.6 °F 54% 30.04 in 10.0 mi East 3.5 mph - N/A   Clear
4:15 PM 77.4 °F 59.9 °F 55% 30.04 in 10.0 mi East 5.8 mph - N/A   Clear
4:35 PM 77.7 °F 59.7 °F 54% 30.04 in 10.0 mi ENE 3.5 mph - N/A   Clear
4:55 PM 78.1 °F 59.0 °F 52% 30.04 in 10.0 mi ESE 6.9 mph - N/A   Clear
5:15 PM 76.8 °F 60.3 °F 56% 30.04 in 10.0 mi SSE 8.1 mph - N/A   Clear
5:35 PM 77.7 °F 58.8 °F 52% 30.04 in 10.0 mi South 6.9 mph - N/A   Clear
5:55 PM 77.4 °F 58.8 °F 53% 30.04 in 10.0 mi SSE 8.1 mph - N/A   Clear
6:15 PM 76.5 °F 58.3 °F 53% 30.04 in 10.0 mi South 8.1 mph - N/A   Scattered Clouds
6:35 PM 77.0 °F 58.6 °F 53% 30.04 in 10.0 mi South 8.1 mph - N/A   Scattered Clouds
6:55 PM 76.3 °F 59.7 °F 56% 30.04 in 10.0 mi South 4.6 mph - N/A   Scattered Clouds
7:15 PM 76.1 °F 59.4 °F 56% 30.05 in 10.0 mi South 4.6 mph - N/A   Clear
7:35 PM 75.9 °F 59.4 °F 56% 30.05 in 10.0 mi South 4.6 mph - N/A   Clear
7:55 PM 75.4 °F 60.1 °F 59% 30.06 in 10.0 mi South 5.8 mph - N/A   Clear
8:15 PM 74.8 °F 60.8 °F 62% 30.06 in 10.0 mi South 5.8 mph - N/A   Clear
8:35 PM 74.5 °F 60.8 °F 62% 30.05 in 10.0 mi South 8.1 mph - N/A   Clear
8:55 PM 74.1 °F 60.6 °F 63% 30.05 in 10.0 mi SSW 4.6 mph - N/A   Clear
9:15 PM 74.1 °F 60.4 °F 62% 30.06 in 10.0 mi SSW 9.2 mph - N/A   Mostly Cloudy
9:35 PM 74.1 °F 60.4 °F 62% 30.07 in 10.0 mi SSW 8.1 mph - N/A   Mostly Cloudy
9:55 PM 73.9 °F 60.1 °F 62% 30.07 in 10.0 mi SSW 5.8 mph - N/A   Clear
10:15 PM 73.6 °F 59.7 °F 62% 30.07 in 10.0 mi SSW 6.9 mph - N/A   Clear
10:35 PM 73.2 °F 59.9 °F 63% 30.08 in 10.0 mi SW 6.9 mph - N/A   Clear
10:55 PM 72.9 °F 60.4 °F 65% 30.08 in 10.0 mi SSW 6.9 mph - N/A   Clear
11:15 PM 72.3 °F 60.6 °F 67% 30.08 in 10.0 mi SW 5.8 mph - N/A   Clear
11:35 PM 72.0 °F 60.3 °F 67% 30.07 in 10.0 mi SW 5.8 mph - N/A   Clear
11:55 PM 71.8 °F 59.7 °F 66% 30.08 in 10.0 mi SW 8.1 mph - N/A   Clear